Simultaneous Nadir Overpasses (SNOs) Predictions

Prediction of SNOs between AQUA and NPP Satellite Orbit:

Table of predicted SNOs for the next 14.0 days since TLE Epoch: 2/13/2025
Index Date (AQUA) Time (AQUA) Lat,Lon (AQUA) SZA (AQUA ) Date (NPP) Time (NPP) Lat,Lon (NPP) SZA (NPP ) Distance(km) Time Diff (sec)
1 02/15/2025 17:26:13 81.30,-150.93 99.72 02/15/2025 17:25:31 81.30,-150.93 99.74 0.59 42
2 02/15/2025 18:15:33 -81.29, 16.56 80.28 02/15/2025 18:16:16 -81.30, 16.39 80.28 2.76 43
3 02/18/2025 03:47:44 -81.30,-126.20 81.15 02/18/2025 03:47:10 -81.30,-126.14 81.14 1.22 34
4 02/18/2025 04:37:03 81.29, 41.26 98.87 02/18/2025 04:37:55 81.30, 41.11 98.86 2.57 52
5 02/20/2025 14:09:13 81.29,-101.83 98.02 02/20/2025 14:08:50 81.30,-101.88 98.04 1.17 23
6 02/20/2025 14:58:32 -81.30, 66.10 82.03 02/20/2025 14:59:33 -81.30, 66.22 82.09 2.07 61
7 02/23/2025 00:30:40 -81.30, -76.88 82.91 02/23/2025 00:30:28 -81.30, -76.84 82.91 0.80 12
8 02/23/2025 01:19:53 81.39, 92.84 96.82 02/23/2025 01:21:06 81.29, 93.17 96.70 12.02 73



Historial Predications of SNOs between AQUA and NPP
